Regional Weather Roundup
Issued by NWS

Home | Current Version | Previous Version | Text Only | Print | Product List | Glossary On
Versions: 1 2 3 4 5 6 7 8 9 10 11 12 13 14 15 16 17 18 19 20 21 22 23 24 25 26 27 28 29 30 31 32 33 34 35 36 37 38 39 40 41 42 43 44 45 46 47 48 49 50
000
ASUS44 KJAN 310120
RWRMS

MISSISSIPPI HOURLY WEATHER ROUNDUP
NATIONAL WEATHER SERVICE JACKSON MS
800 PM CDT SAT JUL 30 2016

NOTE: "FAIR: INDICATES FEW OR NO CLOUDS BELOW 12,000 FEET WITH NO
SIGNIFICANT WEATHER AND/OR OBSTRUCTIONS TO VISIBILITY.

MSZ001>002-007>008-010>013-018>021-025>028-034>036-310200-
NORTHWEST MISSISSIPPI

CITY           SKY/WX    TMP DP  RH WIND       PRES   REMARKS
CLEVELAND      FAIR      82  82 100 SW6       29.97R HX  94
GREENWOOD      CLEAR     81  75  82 CALM      29.96S
GREENVILLE     CLOUDY    84  69  60 SW9       29.98R
OXFORD         FAIR      81  73  78 CALM      29.99R
WINONA         FAIR      81  76  86 CALM      29.97R
$$

MSZ003>006-009-014>017-022>024-029>033-037>039-310200-
NORTHEAST MISSISSIPPI

CITY           SKY/WX    TMP DP  RH WIND       PRES   REMARKS
ABERDEEN       FAIR      82  64  54 SW7       29.99R HAZE
COLUMBUS AFB   CLOUDY    80  76  89 S5        29.97R
GOLDN TRIANGLE CLOUDY    79  72  78 SE6       29.98R
TUPELO         CLOUDY    81  68  64 E5        29.97R
$$

MSZ040-058-310200-
CENTRAL MISSISSIPPI

CITY           SKY/WX    TMP DP  RH WIND       PRES   REMARKS
JACKSON INTL   PTCLDY    80  76  87 E3        29.99S
JACKSON HAWKNS PTCLDY    82  74  76 S3        29.99S
MADISON        FAIR      75  73  94 CALM      29.99S
MERIDIAN KEY   CLEAR     84  74  71 CALM      30.00R HX  91
MERIDIAN NAS   CLEAR     81  70  69 SE6       30.01R
VICKSBURG VKS  CLEAR     81  77  89 CALM      29.98R
$$

MSZ059>079-310200-
SOUTH MISSISSIPPI

CITY           SKY/WX    TMP DP  RH WIND       PRES   REMARKS
BROOKHAVEN     CLOUDY   N/A N/A N/A CALM      30.02R FOG
COLUMBIA       MOCLDY    81  72  74 CALM      30.03F
HATTIESBURG    TSTM      79  73  82 NW7       30.01R
MCCOMB         CLEAR     86  75  69 E3        30.00R HX  95
NATCHEZ        CLEAR     84  75  74 CALM      29.99R HX  92
PINE BELT      CLOUDY    54 N/A N/A S3        30.01F THUNDER
$$

MSZ080>082-310200-
COASTAL MISSISSIPPI

CITY           SKY/WX    TMP DP  RH WIND       PRES   REMARKS
BAY ST LOUIS   PTCLDY    81  75  83 CALM      30.00F
BILOXI         PTCLDY    85  76  73 VRB2      29.99F HX  94
PASCAGOULA     CLOUDY    83  78  85 CALM      30.00R HX  93
GULFPORT       PTCLDY    84  78  82 CALM      29.99F HX  95
$$

LAZ007>009-015>016-023>026-310200-
NORTHEAST LOUISIANA

CITY           SKY/WX    TMP DP  RH WIND       PRES   REMARKS
BASTROP        CLOUDY    80  76  86 CALM      30.02R
TALLULAH/VBURG CLEAR     82  76  81 CALM      29.98R
VIDALIA        FAIR      84  79  84 SE3       30.00R HX  96
$$




USA.gov is the U.S. government's official web portal to all federal, state and local government web resources and services.